This demonstration page uses our WeatherBlox Daily Observations layout. Learn more.

Left ArrowRight Arrow

44.89941, -97.11507

Hourly Observations for January 18, 2021

Temp ( °F °C ) Dew Point ( °F °C ) Humidity (%) Winds ( mph kmh ) Pressure ( in mb ) Visibility ( mi km ) Precip ( " mm )
12:04 am 00:04 Mostly Cloudy with Mist and Fog 20 -6.7 19 -7.2 96 96 W 5 7 29.94 1014 6 10 0.00 0.00
12:15 am 00:15 Mostly Cloudy 22 -5.6 21 -6.1 96 96 WNW 5 7 29.93 1014 7 11 0.00 0.00
12:22 am 00:22 Mostly Cloudy 23 -5 22 -5.6 96 96 WNW 3 6 29.92 1013 7 11 0.00 0.00
12:53 am 00:53 Cloudy with Mist and Fog 20 -6.7 19 -7.2 96 96 Calm 29.87 1012 5 8 0.00 0.00
1:15 am 01:15 Partly Cloudy with Mist and Fog 20 -6.7 18 -7.8 92 92 Calm 29.93 1013 6 10 0.00 0.00
1:27 am 01:27 Mostly Cloudy with Mist and Fog 19 -7.2 18 -7.8 96 96 Calm 29.93 1014 1 2 0.00 0.00
1:31 am 01:31 Mostly Cloudy with Freezing Fog 20 -6.7 19 -7.2 96 96 Calm 29.93 1013 0 0 0.00 0.00
1:53 am 01:53 Mostly Cloudy with Freezing Fog 19 -7.2 19 -7.2 100 100 Calm 29.87 1012 0 0 0.00 0.00
2:18 am 02:18 Mostly Cloudy with Freezing Fog 19 -7.2 18 -7.8 96 96 Calm 29.93 1014 0 0 0.00 0.00
2:53 am 02:53 Mostly Cloudy with Freezing Fog 21 -6.1 20 -6.7 96 96 Calm 29.89 1012 0 0 0.00 0.00
3:27 am 03:27 Cloudy with Freezing Fog 21 -6.1 21 -6.1 100 100 Calm 29.94 1014 1 1 0.00 0.00
3:38 am 03:38 Cloudy with Mist and Fog 21 -6.1 21 -6.1 100 100 Calm 29.94 1014 1 1 0.00 0.00
3:48 am 03:48 Cloudy with Mist and Fog 21 -6 19 -7 93 93 Calm 29.94 1014 1 2 0.00 0.00
3:53 am 03:53 Cloudy with Mist and Fog 21 -6.1 20 -6.7 96 96 Calm 29.89 1012 1 1 0.00 0.00
3:59 am 03:59 Cloudy with Mist and Fog 20 -6.7 18 -7.8 92 92 NNW 3 6 29.95 1014 1 1 0.00 0.00
4:16 am 04:16 Cloudy with Freezing Fog 20 -6.7 20 -6.7 100 100 Calm 29.95 1014 0 0 0.00 0.00
4:27 am 04:27 Cloudy with Mist and Fog 20 -6.7 18 -7.8 92 92 Calm 29.96 1015 1 2 0.00 0.00
4:29 am 04:29 Cloudy with Mist and Fog 20 -6.7 18 -7.8 92 92 Calm 29.96 1015 2 3 0.00 0.00
4:32 am 04:32 Cloudy with Mist and Fog 20 -6.7 19 -7.2 96 96 Calm 29.96 1015 3 5 0.00 0.00
4:53 am 04:53 Cloudy with Mist and Fog 19 -7.2 17 -8.3 92 92 Calm 29.91 1013 6 10 0.00 0.00
5:35 am 05:35 Cloudy with Mist and Fog 19 -7.2 18 -7.8 96 96 Calm 29.98 1015 4 6 0.00 0.00
5:53 am 05:53 Cloudy with Mist and Fog 20 -6.7 18 -7.8 92 92 Calm 29.92 1013 5 8 0.00 0.00
6:53 am 06:53 Cloudy with Mist and Fog 20 -6.7 19 -7.2 96 96 Calm 29.95 1014 5 8 0.00 0.00
7:31 am 07:31 Cloudy with Mist and Fog 20 -6.7 18 -7.8 92 92 N 3 6 30.01 1016 6 10 0.00 0.00
7:40 am 07:40 Cloudy 20 -6.7 19 -7.2 96 96 N 3 6 30.01 1016 7 11 0.00 0.00
7:53 am 07:53 Cloudy 21 -6.1 19 -7.2 92 92 N 3 6 29.96 1014 7 11 0.00 0.00
8:53 am 08:53 Cloudy 19 -7.2 17 -8.3 92 92 S 7 11 29.97 1015 9 14 0.00 0.00
9:53 am 09:53 Cloudy 24 -4.4 21 -6.1 88 88 SSW 7 11 29.98 1015 8 13 0.00 0.00
10:06 am 10:06 Cloudy 24 -4.4 21 -6.1 88 88 SSW 6 9 30.02 1017 8 13 0.00 0.00
10:53 am 10:53 Mostly Sunny 24 -4.4 22 -5.6 91 91 Calm 29.99 1016 9 14 0.00 0.00
11:53 am 11:53 Partly Cloudy 25 -3.9 23 -5 92 92 Calm 29.99 1016 10 16 0.00 0.00
12:53 pm 12:53 Cloudy 27 -2.8 23 -5 85 85 Calm 29.98 1015 10 16 0.00 0.00
1:53 pm 13:53 Cloudy 28 -2.2 22 -5.6 78 78 WSW 5 7 29.98 1015 10 16 0.00 0.00
2:53 pm 14:53 Cloudy 28 -2.2 23 -5 81 81 SW 6 9 29.99 1016 10 16 0.00 0.00
3:53 pm 15:53 Cloudy with Light Snow 28 -2.2 25 -3.9 88 88 WSW 5 7 30.00 1016 3 5 0.00 0.00
4:00 pm 16:00 Cloudy with Light Snow 29 -1.7 25 -3.9 85 85 WSW 7 11 30.02 1017 2 3 0.00 0.00
4:18 pm 16:18 Cloudy with Light Snow 29 -1.7 25 -3.9 85 85 W 8 13 30.03 1017 2 2 0.00 0.00
4:37 pm 16:37 Cloudy with Light Snow 28 -2.2 26 -3.3 92 92 W 7 11 30.04 1017 2 3 0.00 0.00
4:46 pm 16:46 Cloudy with Light Snow 28 -2.2 25 -3.9 88 88 W 7 11 30.05 1017 3 4 0.00 0.00
4:53 pm 16:53 Cloudy with Light Snow 28 -2.2 25 -3.9 88 88 W 6 9 30.02 1017 2 3 0.00 0.00
5:21 pm 17:21 Cloudy with Light Snow 28 -2.2 26 -3.3 92 92 WNW 5 7 30.06 1018 4 6 0.00 0.00
5:49 pm 17:49 Cloudy with Light Snow 28 -2 27 -3 93 93 W 3 6 30.06 1018 6 10 0.00 0.00
5:53 pm 17:53 Cloudy with Light Snow 28 -2.2 26 -3.3 92 92 Calm 30.05 1018 7 11 0.00 0.00
6:07 pm 18:07 Cloudy with Light Snow 28 -2.2 26 -3.3 92 92 WNW 5 7 30.08 1018 3 5 0.00 0.00
6:11 pm 18:11 Cloudy with Light Snow 28 -2.2 26 -3.3 92 92 NW 3 6 30.08 1018 3 4 0.00 0.00
6:20 pm 18:20 Cloudy with Light Snow 28 -2.2 26 -3.3 92 92 W 6 9 30.08 1018 3 5 0.00 0.00
6:46 pm 18:46 Cloudy with Light Snow 28 -2.2 26 -3.3 92 92 WNW 6 9 30.09 1019 5 8 0.00 0.00
6:53 pm 18:53 Cloudy with Light Snow 28 -2.2 27 -2.8 96 96 WNW 5 7 30.07 1018 4 6 0.00 0.00
7:19 pm 19:19 Cloudy with Mist and Fog 28 -2.2 27 -2.8 96 96 NW 5 7 30.10 1019 3 4 0.00 0.00
7:41 pm 19:41 Cloudy with Light Snow 28 -2.2 27 -2.8 96 96 NW 5 7 30.10 1019 4 6 0.00 0.00
7:53 pm 19:53 Cloudy with Light Snow 28 -2.2 27 -2.8 96 96 NW 6 9 30.08 1019 4 6 0.00 0.00
7:59 pm 19:59 Cloudy with Light Snow 26 -3.3 26 -3.3 100 100 NNE 7 11 30.11 1020 3 4 0.00 0.00
8:11 pm 20:11 Cloudy with Light Snow 24 -4.4 23 -5 96 96 NE 9 15 30.13 1020 3 5 0.00 0.00
8:21 pm 20:21 Cloudy with Mist and Fog 24 -4.4 23 -5 96 96 NNE 10 17 30.14 1021 2 3 0.00 0.00
8:36 pm 20:36 Cloudy with Light Freezing Rain 19 -7.2 18 -7.8 96 96 NNE 16 26 30.17 1022 2 3 0.00 0.00
8:53 pm 20:53 Cloudy with Light Freezing Rain 18 -7.8 17 -8.3 96 96 NNE 14 22 30.14 1021 2 3 0.00 0.00
9:09 pm 21:09 Cloudy with Light Freezing Rain 18 -7.8 17 -8.3 96 96 NNE 13 20 30.20 1023 3 4 0.00 0.00
9:14 pm 21:14 Cloudy with Mist and Fog 18 -7.8 17 -8.3 96 96 NNE 10 17 30.20 1023 3 5 0.00 0.00
9:53 pm 21:53 Cloudy 17 -8.3 16 -8.9 95 95 N 8 13 30.15 1021 9 14 0.00 0.00
10:05 pm 22:05 Cloudy 17 -8.3 16 -8.9 95 95 N 7 11 30.21 1023 10 16 0.00 0.00
10:53 pm 22:53 Cloudy 17 -8.3 16 -8.9 95 95 W 3 6 30.16 1021 10 16 0.00 0.00
11:11 pm 23:11 Cloudy 18 -7.8 15 -9.4 88 88 NW 9 15 30.23 1024 10 16 0.00 0.00
11:53 pm 23:53 Cloudy 18 -7.8 17 -8.3 96 96 WNW 8 13 30.17 1022 10 16 0.00 0.00

Powered by AerisWeather